OpenBCM V1.13 (Linux)

Packet Radio Mailbox

DB0FHN

[JN59NK Nuernberg]

 Login: GUEST





  
UA9FBV > KEPS     12.11.04 08:28l 165 Lines 7769 Bytes #999 (0) @ AMSAT
BID : ORB04316.N
Read: GUEST DL7NDR
Subj: 2Line Orbital Elements 04316.AMSAT
Path: DB0FHN<DB0MRW<DB0HOT<OK0PBX<OK0PRG<OK0PCC<OK0PAD<OK0PPL<DB0RES<ER3KAZ<
      UA9FBV
Sent: 041112/0618Z @:UA9FBV.PRM.RUS.AS #:8769 [Perm] GATEWAY $:ORB04316.N
From: UA9FBV@UA9FBV.PRM.RUS.AS
To  : KEPS@AMSAT


HR AMSAT ORBITAL ELEMENTS FOR AMATEUR SATELLITES IN NASA FORMAT
FROM WA5QGD FORT WORTH,TX November 11, 2004
SEND SUBSCRIBE/UNSUBSCRIBE TO majordomo@amsat.org ONLY
BID: ORB04316.N

DECODE 2-LINE ELSETS WITH THE FOLLOWING KEY:
1 AAAAAU 00  0  0 BBBBB.BBBBBBBB  .CCCCCCCC  00000-0  00000-0 0  DDDZ
2 AAAAA EEE.EEEE FFF.FFFF GGGGGGG HHH.HHHH III.IIII JJ.JJJJJJJJKKKKKZ
KEY: A-CATALOGNUM B-EPOCHTIME C-DECAY D-ELSETNUM E-INCLINATION F-RAAN
G-ECCENTRICITY H-ARGPERIGEE I-MNANOM J-MNMOTION K-ORBITNUM Z-CHECKSUM

TO ALL RADIO AMATEURS BT

AO-07
1 07530U 74089B   04316.20060390 -.00000029  00000-0  10000-3 0  3458
2 07530 101.6642   0.5348 0012085 298.0701  61.9148 12.53569339372333
AO-10
1 14129U 83058B   04315.29092548 -.00000222  00000-0  10000-3 0 01200
2 14129 026.7780 062.3200 6032734 139.4977 286.2843 02.05870533161023
UO-11
1 14781U 84021B   04316.18473741  .00001559  00000-0  21799-3 0  6320
2 14781  98.1894 303.5613 0008782 346.8861  13.2127 14.79064216109572
RS-10/11
1 18129U 87054A   04315.65358324  .00000016  00000-0  14619-5 0 05397
2 18129 082.9286 039.7812 0010109 275.0015 084.9995 13.72747859871091
FO-20
1 20480U 90013C   04316.49003346  .00000010  00000-0  95362-4 0  7381
2 20480  99.0246 166.0930 0540271  13.1845 348.2759 12.83343649691571
RS-12/13
1 21089U 91007A   04315.84964490  .00000183  00000-0  17773-3 0  7598
2 21089  82.9214  72.9226 0028080 330.3610  29.5971 13.74443769690501
RS-15
1 23439U 94085A   04316.84381897 -.00000039  00000-0  10597-3 0  8198
2 23439  64.8132  99.0426 0157538 354.8209   5.1062 11.27550298406887
FO-29
1 24278U 96046B   04316.26646202  .00000092  00000-0  12917-3 0  8252
2 24278  98.5806  28.9230 0351410  20.9240 340.5883 13.52905083406722
SO-33
1 25509U 98061B   04316.06411784  .00001705  00000-0  32849-3 0  2344
2 25509  31.4287 185.4096 0358281  59.7138 303.8457 14.27909120315623
AO-40
1 26609U 00072B   04314.36615404  .00000009  00000-0  10000-3 0  4564
2 26609   9.4117 335.2807 7961147 337.0403   1.7301  1.25585729 18498
UO-14
1 20437U 90005B   04316.02907244  .00000223  00000-0  99394-4 0  6354
2 20437  98.2028 331.8929 0011527 120.3638 239.8691 14.31381488772826
AO-16
1 20439U 90005D   04315.58430274  .00000099  00000-0  52502-4 0  3246
2 20439  98.2320 346.3051 0011642 129.3522 230.8718 14.31639466772811
WO-18
1 20441U 90005F   04316.71852380  .00000099  00000-0  52266-4 0  5150
2 20441  98.2449 351.5097 0012435 126.6315 233.6033 14.31714818773036
LO-19
1 20442U 90005G   04315.78433876 -.00000128  00000-0 -32456-4 0  2502
2 20442  98.2538 354.7847 0012830 128.6672 231.5643 14.31886057772961
UO-22
1 21575U 91050B   04316.21757861  .00000456  00000-0  15983-3 0  2511
2 21575  98.2131 284.1574 0007900  33.9782 326.1911 14.39433596699144
KO-23
1 22077U 92052B   04316.54061824 -.00000037  00000-0  10000-3 0  3102
2 22077  66.0878 242.2542 0011679 306.8184  53.1762 12.86427164575596
AO-27
1 22825U 93061C   04316.17346644  .00000313  00000-0  13951-3 0  9851
2 22825  98.2457 317.3359 0008497 182.0547 178.0602 14.29096828580086
IO-26
1 22826U 93061D   04315.68153116  .00000543  00000-0  22907-3 0  6546
2 22826  98.2412 318.1587 0008913 182.6323 177.4794 14.29334780580077
KO-25
1 22828U 93061F   04316.00690018  .00000191  00000-0  90435-4 0  9197
2 22828  98.2359 318.6953 0010231 160.0627 200.0958 14.29652135548340
TO-31
1 25396U 98043C   04316.67819882 -.00000043  00000-0  00000 0 0  1003
2 25396  98.5596  24.1549 0003583 100.1311 260.0319 14.23643369329466
GO-32
1 25397U 98043D   04316.53199424 -.00000043  00000-0 -15687-6 0  6024
2 25397  98.5509  21.9340 0002265 112.8545 247.2876 14.23057788329379
UO-36
1 25693U 99021A   04316.80485311  .00000836  00000-0  13219-3 0  6320
2 25693  64.5594 231.2647 0043623 239.3216 120.3556 14.78419405299688
SO-41
1 26545U 00057A   04316.33304918  .00001948  00000-0  27445-3 0  9255
2 26545  64.5579 248.6010 0026127 343.7796  16.2510 14.79926130222685
MO-46
1 26548U 00057D   04315.98447053  .00002417  00000-0  31647-3 0   258
2 26548  64.5579 235.0059 0025407 329.0205  30.9405 14.82497123222936
SO-42
1 26549U 00057E   04316.83471650  .00002411  00000-0  34386-3 0  9834
2 26549  64.5576 254.4982 0026766 354.7812   5.3051 14.78817723222617
NO-44
1 26931U 01043C   04315.79625401  .00000227  00000-0  12126-3 0  8968
2 26931  67.0538  70.2438 0007011 269.2109  90.8203 14.29337530162552
AO-49
1 27605U 02058A   04316.79786013  .00001180  00000-0  19911-3 0  5833
2 27605  64.5574  76.2509 0084760 282.5830  76.5791 14.71972385101852
SO-50
1 27607U 02058C   04315.85814218  .00001649  00000-0  27648-3 0  5645
2 27607  64.5571  83.5344 0085734 281.6957  77.4562 14.70782818101621
AO-51
1 28375U 04025K   04316.63693109  .00000582  00000-0  18864-3 0  1062
2 28375  98.2446  21.4755 0084502 167.3543 192.9813 14.40409070 19295
NOAA-10
1 16969U 86073A   04316.37183318  .00000335  00000-0  15542-3 0  4641
2 16969  98.7613 315.6630 0013099  50.7189 309.5149 14.27224360944024
NOAA-11
1 19531U 88089A   04316.39573063  .00000051  00000-0  49429-4 0  3220
2 19531  98.8607  39.2673 0011557 202.7847 157.2814 14.14737528832135
NOAA-12
1 21263U 91032A   04316.44002285  .00000437  00000-0  20365-3 0  8080
2 21263  98.6833 302.7210 0012636 346.6101  13.4758 14.25429080701222
MET-3/5
1 21655U 91056A   04316.82724293  .00000051  00000-0  10000-3 0  6673
2 21655  82.5516 312.2162 0014450  59.9028 300.3516 13.16995183636708
MET-2/21
1 22782U 93055A   04316.81358412  .00000032  00000-0  15809-4 0   532
2 22782  82.5487  73.4182 0022294  17.1246 343.0691 13.83573783565518
OKEAN-4
1 23317U 94066A   04316.68357601  .00001897  00000-0  23541-3 0  4696
2 23317  82.5372 100.1611 0023632 130.4051 229.9209 14.81958376543697
NOAA-14
1 23455U 94089A   04316.34653416  .00000103  00000-0  79520-4 0  3439
2 23455  99.1228 354.7831 0008617 251.0009 109.0214 14.13506371508722
SICH-1
1 23657U 95046A   04316.15336407  .00001902  00000-0  24141-3 0  2721
2 23657  82.5287 241.4570 0025563 116.7095 243.6746 14.80984807495683
NOAA-15
1 25338U 98030A   04316.25438965  .00000131  00000-0  74822-4 0  7931
2 25338  98.5198 325.2049 0009558 276.2834  83.7274 14.24464846337723
RESURS
1 25394U 98043A   04316.89123043  .00000151  00000-0  84478-4 0  9454
2 25394  98.5675  25.9955 0002403  77.6759 282.4687 14.24033708329520
FENGYUN1
1 25730U 99025A   04316.62999195 -.00000020  00000-0  12036-4 0  2774
2 25730  98.6051 321.1641 0014512   4.4048 355.7249 14.11783244283811
OKEAN-0
1 25860U 99039A   04316.21012660  .00001141  00000-0  18434-3 0  2761
2 25860  97.7828 345.4323 0001570 139.3699 220.7716 14.73149899285916
NOAA-16
1 26536U 00055A   04316.56707934 -.00000039  00000-0  34680-5 0   953
2 26536  98.9820 268.1246 0010078 325.1104  34.9725 14.12172484213348
NOAA-17
1 27453U 02032A   04316.55378173  .00000365  00000-0  17929-3 0  1178
2 27453  98.6868  27.1140 0011146 330.6264  29.4289 14.23593632123873
HUBBLE
1 20580U 90037B   04316.89393997  .00003565  00000-0  27101-3 0  2047
2 20580  28.4694 244.3096 0004317 103.3392 256.7557 14.99434921597592
UARS
1 21701U 91063B   04316.14910270  .00001482  00000-0  12584-3 0  3079
2 21701  56.9815 353.8159 0003940  88.0338 272.1145 15.03678223720690
PO-34
1 25520U 98064B   04315.43539623  .00003440  00000-0  16507-3 0   500
2 25520  28.4601 334.3836 0005433   9.4460 350.6360 15.15881349333350
ISS
1 25544U 98067A   04316.98447509 -.00069462  00000-0 -54551-3 0  1196
2 25544  51.6339 291.5611 0008804 345.2603 123.8177 15.70793314341532
OO-38
1 26063U 00004C   04316.48448475  .00000297  00000-0  12257-3 0  2079
2 26063 100.2245 130.4560 0036775 308.4668  51.3206 14.35681761251057
NO-45
1 26932U 01043D   04316.41124219  .00000115  00000-0  77442-4 0  8891
2 26932  67.0593  68.3057 0006922 286.9186  73.1165 14.29452897162678


Read previous mail | Read next mail


 23.06.2026 21:57:39lGo back Go up